Temp
11 11 10 10 9 9 9 10 10 10 10 10 10 10 10 10 10 11 11 10 11 11 11 11 11 11 12 11 11 11 12 11 12 11 11 11 10 10 10 10 10 10 10
10 10 10 10 10 9 9 9 9 10 10 10 10 10 10 10 10 10 11 11 11 11 11 11 11 12 12 12 11 11 10 10 11 12 12 11 10 10 10 10 9 9 9
11 10 10 10 10 10 10 10 10 10 10 10 9 10 10 10 11 11 11 11 11 11 11 11 12 12 12 11 11 12 11 12 11 12 12 11 11 10 10 10 9 10 10
11 11 11 10 10 10 10 10 10 10 10 10 9 10 10 10 10 11 11 11 10 10 11 10 11 11 11 11 11 11 11 12 12 11 11 11 11 11 10 10 10 10 10
12 12 11 11 10 10 9 9 9 9 9 9 9 10 10 10 10 10 11 10 10 10 10 10 10 10 11 10 10 10 10 11 11 11 10 11 11 11 10 10 10 9 10
12 12 12 12 10 10 9 10 8 9 8 9 9 9 9 10 10 10 10 10 9 9 9 9 9 9 9 9 10 10 10 10 10 10 10 10 10 10 10 10 10 9 9
13 11 8 11 10 9 10 10 10 9 7 8 9 9 9 10 10 9 9 9 9 9 9 9 9 9 9 9 9 10 10 10 10 10 10 10 10 10 10 10 10 9 9
11 11 11 11 10 10 10 9 9 9 9 9 9 10 10 10 9 9 9 9 9 9 9 9 9 9 9 10 10 10 10 10 10 10 10 10 10 10 10 10 10 9 9
10 10 9 9 8 9 10 9 9 7 8 8 7 8 8 8 8 8 9 9 9 9 9 9 9 10 10 10 10 10 10 10 10 10 10 10 9 9 9 9 9 9 9
10 9 9 8 8 9 9 9 7 7 8 8 8 8 8 8 8 8 9 9 9 9 9 9 9 9 9 9 9 9 9 9 9 9 10 9 9 9 9 9 9 9 8
8 8 8 8 8 8 8 8 8 8 8 8 8 8 8 8 8 8 9 9 9 9 9 8 8 8 8 8 8 9 8 9 9 9 9 9 8 8 8 8 8 8 7
7 6 6 6 7 7 7 7 7 7 7 8 8 8 8 8 8 8 9 9 9 9 8 8 8 8 8 8 8 8 8 8 9 8 8 8 8 7 7 7 7 7 7
6 6 6 6 6 6 6 6 7 7 7 7 7 7 8 8 8 8 8 8 8 8 8 7 7 7 8 8 8 8 7 8 7 7 7 7 7 7 6 6 5 6 6
5 5 5 5 5 5 5 6 6 6 7 7 7 7 7 7 7 7 7 7 7 7 7 7 7 7 7 7 6 6 6 6 6 7 6 6 6 6 6 5 4 4 4
5 5 5 5 5 5 6 6 6 6 6 6 6 7 7 6 6 6 6 6 6 6 6 6 6 6 5 5 5 4 4 5 5 5 5 6 5 5 6 5 4 4 5
5 5 5 5 5 5 5 5 5 5 5 5 5 5 5 5 5 5 6 6 6 6 6 6 5 4 4 4 3 3 3 3 3 4 4 4 4 4 4 4 4 4 4
4 4 4 4 4 4 4 4 3 4 3 3 4 4 4 4 4 4 4 4 4 4 4 4 4 3 3 2 2 3 3 3 3 3 3 3 3 3 3 3 4 2 4
4 4 3 3 3 3 3 3 3 3 3 2 2 2 2 2 2 2 2 3 3 3 3 3 3 3 2 2 2 2 3 3 3 3 3 3 3 3 2 2 3 3 3
3 3 3 3 3 3 3 2 2 2 1 1 1 1 1 1 -0 -0 0 0 1 1 1 1 2 2 2 2 2 2 2 3 3 3 3 2 3 3 3 3 3 3 3
2 2 2 1 1 1 1 1 1 0 -0 -0 -1 -1 -0 0 1 1 1 1 1 1 1 2 2 2 1 1 2 2 2 2 2 3 3 3 3 3 3 2 2 3 3
1 1 0 0 0 0 0 0 0 0 -0 -0 -0 -0 -0 -0 -0 0 0 1 1 1 1 1 1 1 1 1 1 1 1 1 2 2 2 2 2 2 2 1 2 2 3
1 0 0 0 -0 -0 -1 -0 -1 -1 -1 -1 -1 -0 -1 -1 -1 -1 -2 -1 -1 -1 -2 -2 -2 -1 1 1 1 1 1 1 1 2 1 1 1 2 2 1 2 2 2
-0 -0 -1 -1 -2 -2 -2 -2 -2 -2 -2 -1 -1 -2 -3 -2 -2 -1 -2 -3 -4 -3 -4 -4 -3 -3 -1 -1 -0 -0 0 1 1 1 1 -0 -0 0 1 1 1 2 2
-0 -0 -1 -2 -3 -3 -2 -2 -3 -2 -2 -2 -3 -3 -3 -3 -3 -2 -3 -3 -3 -3 -3 -3 -3 -1 -2 -2 -2 -1 -1 -2 -2 -1 -1 -1 -1 -1 0 0 0 1 1
-1 -1 -1 -2 -3 -2 -3 -3 -4 -3 -3 -2 -3 -3 -4 -4 -3 -3 -3 -4 -3 -3 -4 -3 -2 -2 -2 -2 -2 -2 -2 -2 -2 -2 -2 -1 -1 -1 -0 -0 0 0 1
-2 -2 -3 -3 -3 -3 -3 -4 -3 -3 -3 -3 -2 -2 -2 -2 -3 -3 -3 -3 -3 -3 -3 -3 -3 -2 -2 -2 -2 -2 -3 -2 -2 -2 -1 -1 -1 -1 -1 -1 -0 0 0
Height
3187 3188 3190 3192 3193 3193 3194 3194 3194 3195 3198 3200 3200 3201 3201 3203 3204 3204 3205 3207 3207 3209 3209 3208 3209 3208 3208 3206 3204 3202 3201 3200 3199 3197 3194 3191 3190 3187 3184 3182 3179 3176 3172
3180 3183 3185 3187 3188 3190 3189 3190 3190 3192 3193 3195 3196 3196 3198 3199 3200 3201 3202 3202 3203 3204 3205 3205 3204 3203 3203 3202 3200 3200 3193 3184 3190 3190 3189 3187 3185 3183 3180 3177 3174 3170 3167
3176 3179 3181 3182 3183 3185 3185 3186 3185 3185 3185 3188 3190 3191 3193 3194 3195 3196 3196 3197 3198 3198 3199 3199 3198 3196 3196 3195 3191 3190 3183 3184 3181 3181 3182 3182 3181 3178 3175 3172 3168 3165 3162
3170 3173 3174 3176 3180 3180 3182 3182 3182 3180 3181 3182 3183 3185 3187 3188 3189 3189 3192 3194 3194 3193 3191 3191 3191 3190 3189 3187 3184 3182 3180 3179 3175 3174 3173 3174 3174 3172 3169 3166 3163 3159 3156
3163 3166 3165 3167 3169 3173 3175 3175 3175 3172 3176 3176 3177 3178 3178 3181 3183 3184 3186 3186 3186 3185 3184 3183 3183 3182 3179 3176 3174 3173 3174 3173 3170 3168 3168 3166 3165 3165 3162 3158 3155 3152 3151
3156 3156 3157 3160 3162 3166 3173 3169 3166 3167 3167 3170 3167 3170 3169 3171 3173 3175 3176 3176 3175 3175 3174 3174 3173 3171 3169 3168 3166 3165 3165 3163 3162 3159 3158 3157 3156 3153 3152 3150 3146 3144 3141
3146 3146 3144 3151 3151 3159 3156 3157 3159 3158 3157 3160 3158 3161 3162 3163 3165 3167 3167 3167 3167 3165 3164 3163 3163 3162 3161 3160 3159 3159 3157 3155 3153 3151 3148 3148 3145 3144 3141 3139 3137 3134 3132
3143 3143 3144 3144 3153 3154 3150 3153 3151 3154 3159 3156 3156 3156 3154 3155 3156 3157 3159 3159 3158 3157 3156 3155 3155 3154 3152 3150 3151 3149 3148 3146 3143 3140 3138 3137 3134 3133 3130 3127 3126 3123 3121
3141 3141 3140 3134 3146 3148 3144 3144 3147 3149 3153 3152 3151 3150 3149 3149 3148 3151 3151 3151 3149 3148 3147 3145 3144 3143 3140 3138 3136 3136 3135 3135 3131 3128 3127 3125 3122 3120 3118 3116 3116 3113 3110
3135 3136 3135 3138 3139 3142 3143 3142 3142 3146 3147 3147 3145 3144 3144 3142 3142 3142 3141 3140 3140 3139 3136 3134 3132 3130 3129 3126 3124 3122 3122 3125 3121 3119 3116 3114 3112 3109 3108 3106 3104 3102 3101
3134 3133 3132 3135 3137 3138 3138 3139 3140 3139 3138 3137 3136 3134 3135 3134 3133 3131 3130 3130 3128 3127 3125 3124 3122 3119 3119 3116 3114 3113 3111 3110 3109 3106 3105 3102 3100 3098 3096 3095 3093 3092 3091
3130 3130 3131 3133 3134 3134 3133 3133 3135 3134 3133 3132 3130 3128 3126 3125 3123 3120 3119 3119 3117 3114 3113 3111 3110 3109 3107 3105 3103 3101 3100 3098 3096 3095 3091 3091 3088 3088 3085 3084 3084 3083 3082
3126 3128 3129 3130 3130 3129 3129 3129 3128 3128 3127 3125 3123 3121 3119 3118 3116 3114 3112 3109 3105 3103 3101 3100 3098 3096 3095 3094 3093 3091 3089 3087 3084 3082 3080 3079 3077 3077 3077 3075 3075 3074 3073
3118 3120 3121 3122 3122 3122 3122 3121 3119 3119 3117 3115 3112 3112 3111 3110 3108 3105 3103 3100 3096 3092 3088 3087 3086 3083 3081 3080 3079 3078 3077 3075 3073 3070 3069 3067 3066 3067 3065 3066 3066 3066 3064
3113 3113 3113 3112 3113 3112 3111 3110 3109 3109 3108 3106 3103 3101 3100 3100 3097 3093 3090 3087 3085 3082 3079 3076 3074 3072 3071 3068 3067 3065 3064 3062 3060 3059 3056 3055 3056 3056 3054 3055 3055 3056 3055
3109 3108 3106 3105 3104 3103 3102 3100 3099 3096 3095 3094 3092 3092 3091 3088 3086 3082 3078 3075 3073 3070 3067 3065 3063 3061 3059 3057 3056 3054 3052 3050 3047 3045 3045 3044 3045 3044 3044 3045 3045 3045 3046
3103 3102 3100 3098 3095 3093 3091 3090 3088 3086 3084 3081 3079 3078 3075 3072 3069 3067 3065 3062 3058 3055 3054 3052 3050 3049 3047 3046 3044 3041 3041 3040 3038 3036 3034 3035 3034 3035 3035 3036 3037 3036 3035
3097 3096 3094 3092 3090 3088 3085 3083 3081 3079 3077 3075 3071 3069 3065 3062 3060 3056 3054 3050 3048 3043 3041 3038 3038 3036 3034 3033 3032 3031 3029 3029 3028 3026 3025 3025 3026 3026 3027 3028 3028 3028 3027
3091 3088 3086 3084 3081 3079 3077 3074 3072 3070 3068 3066 3065 3062 3057 3054 3052 3048 3044 3040 3036 3034 3031 3028 3025 3023 3022 3021 3020 3018 3017 3016 3017 3016 3015 3015 3016 3016 3016 3018 3019 3020 3020
3084 3082 3079 3077 3075 3073 3071 3069 3066 3064 3061 3058 3056 3052 3049 3046 3044 3038 3033 3029 3025 3022 3019 3016 3014 3010 3009 3009 3007 3005 3004 3004 3004 3004 3005 3005 3006 3006 3006 3008 3008 3011 3011
3079 3076 3074 3072 3069 3067 3065 3062 3059 3056 3052 3050 3047 3043 3039 3033 3029 3026 3024 3018 3013 3009 3005 3003 3002 3001 2998 2996 2994 2993 2993 2993 2993 2992 2993 2994 2995 2996 2997 2998 3000 3001 3001
3074 3072 3070 3067 3064 3061 3059 3055 3052 3048 3045 3042 3039 3035 3030 3024 3018 3012 3007 3004 3001 2997 2994 2992 2990 2988 2986 2984 2983 2982 2982 2983 2983 2982 2982 2982 2983 2984 2985 2987 2988 2990 2992
3069 3066 3062 3059 3056 3054 3052 3049 3045 3042 3040 3036 3032 3027 3022 3016 3010 3004 2998 2993 2990 2989 2986 2983 2980 2979 2977 2975 2974 2973 2972 2972 2971 2971 2971 2971 2972 2973 2974 2976 2978 2979 2981
3062 3058 3054 3051 3049 3047 3046 3042 3039 3036 3034 3030 3026 3021 3015 3007 3000 2994 2989 2986 2984 2981 2978 2974 2972 2970 2970 2970 2968 2967 2965 2963 2962 2961 2960 2961 2962 2962 2963 2964 2966 2968 2971
3052 3047 3044 3041 3040 3039 3038 3036 3034 3032 3029 3025 3022 3017 3010 3003 2995 2988 2984 2980 2977 2975 2972 2969 2966 2964 2964 2963 2962 2960 2958 2957 2955 2953 2952 2950 2951 2951 2952 2953 2955 2956 2959
3042 3037 3034 3033 3032 3032 3032 3031 3030 3028 3025 3022 3018 3012 3006 3000 2992 2984 2979 2976 2973 2969 2967 2964 2962 2960 2959 2957 2955 2953 2951 2949 2947 2944 2942 2941 2941 2941 2941 2941 2943 2944 2947
Wind_Speed
15 15 13 10 10 11 13 16 18 20 19 19 20 18 17 18 17 17 15 14 15 14 14 14 14 14 16 19 22 28 39 39 31 25 20 17 19 20 23 25 27 27 28
19 22 19 19 19 18 18 19 20 20 21 21 19 19 17 17 18 18 17 18 18 17 18 17 18 19 28 31 34 33 55 61 38 33 27 22 23 23 26 28 30 32 32
22 23 23 24 25 22 24 27 25 23 21 22 20 19 19 20 20 18 18 18 19 21 23 22 23 29 32 29 29 29 28 27 35 38 34 28 27 28 29 31 34 36 36
23 26 28 28 28 29 28 30 28 26 25 23 22 20 20 20 19 20 22 24 25 26 23 24 22 23 27 28 28 27 31 37 42 41 38 34 31 31 33 36 37 38 40
25 27 32 34 34 28 25 26 30 29 28 23 22 23 25 19 27 27 26 29 30 30 27 26 27 27 28 27 28 30 34 36 40 38 37 36 33 35 38 40 42 43 41
28 29 33 33 34 23 26 18 16 36 37 32 21 29 32 31 29 30 32 34 32 31 33 34 32 30 25 23 24 26 28 29 31 32 33 35 36 39 41 43 45 45 45
23 19 9 12 11 20 13 19 5 16 38 38 43 38 38 38 39 41 41 37 32 31 27 23 21 23 25 26 27 29 31 34 36 38 40 40 43 43 46 46 46 47 45
7 9 8 12 13 9 13 15 15 13 14 22 33 35 38 42 43 43 40 32 26 25 26 27 29 28 29 30 30 31 33 36 38 42 44 45 47 48 47 45 45 46 44
13 16 20 21 14 7 10 16 22 26 27 28 28 30 27 24 22 25 27 28 28 29 32 34 34 35 36 36 36 37 36 36 39 41 42 43 43 43 42 41 40 41 40
9 7 5 4 7 8 11 10 9 13 16 17 18 20 23 24 27 29 31 32 33 34 35 35 35 35 35 35 35 35 34 33 35 36 37 39 41 41 41 40 39 37 38
5 4 4 7 9 11 11 13 17 19 20 22 23 25 27 29 32 34 36 37 39 38 39 36 35 33 32 32 33 33 35 35 36 37 36 36 37 40 38 36 36 35 33
9 8 8 10 13 13 19 19 22 23 25 27 28 30 32 34 36 39 41 43 44 43 41 38 36 36 37 36 36 36 37 38 37 36 35 34 33 35 36 35 32 31 32
10 9 10 14 17 19 20 22 22 28 27 29 30 32 34 37 40 43 45 46 47 46 43 40 39 38 38 37 36 36 36 36 36 34 33 32 33 34 34 35 33 31 26
15 15 15 16 15 18 22 24 27 27 28 30 33 35 37 39 41 42 44 45 46 47 46 44 42 41 40 37 35 33 34 34 34 33 31 28 30 32 33 36 37 35 31
17 18 20 21 22 23 24 25 25 27 28 30 33 34 36 36 38 40 42 42 43 44 44 44 43 42 40 37 35 32 32 32 30 29 29 28 27 27 28 31 40 42 40
21 23 25 26 27 27 27 27 27 29 29 30 30 30 32 33 33 35 37 38 39 40 41 41 41 38 37 35 32 31 30 29 29 29 28 27 26 26 25 26 30 36 39
25 28 30 31 30 30 29 28 28 28 27 28 29 31 32 33 34 35 36 37 37 38 39 39 38 35 34 32 32 31 29 28 29 28 28 28 28 27 27 27 26 24 30
29 30 29 28 27 28 28 28 28 27 25 24 23 25 27 28 30 32 32 34 35 37 36 36 37 36 34 32 31 32 31 29 28 30 30 29 29 29 25 26 26 23 24
28 28 28 28 28 28 29 28 28 26 25 23 22 23 26 27 27 29 30 32 35 34 35 36 34 35 36 35 34 32 33 32 31 31 30 30 30 30 31 30 27 23 24
24 26 27 27 27 27 26 26 25 25 25 25 25 27 28 30 29 32 36 37 37 37 36 35 36 34 32 32 33 33 33 32 34 33 31 30 29 31 33 29 29 26 26
24 24 25 25 26 26 27 27 28 29 29 29 27 28 30 35 38 37 35 37 38 38 37 34 32 31 29 29 30 30 30 30 30 31 31 31 32 30 31 27 26 26 26
23 25 26 26 26 27 27 28 27 27 26 26 28 31 35 37 39 39 39 37 31 28 30 28 26 27 25 25 26 27 29 29 29 29 27 28 29 32 31 30 28 28 26
26 29 31 30 26 26 28 29 26 23 23 24 29 33 36 40 40 38 36 33 24 19 26 21 19 18 15 18 21 23 25 26 26 28 29 27 24 26 30 31 29 29 31
32 33 33 31 29 27 29 25 23 20 21 26 28 32 35 38 34 30 23 17 18 20 20 22 17 17 10 13 16 18 18 18 21 21 24 28 29 29 27 29 29 30 32
35 32 29 26 26 23 23 21 15 19 21 22 25 30 31 33 31 27 18 22 17 19 19 20 16 11 11 11 17 19 18 21 22 23 25 25 23 22 30 28 29 28 33
28 27 25 22 22 21 19 12 17 17 20 23 24 29 31 34 34 30 20 18 20 21 19 20 21 18 13 15 18 19 22 23 20 21 21 22 24 29 33 30 32 33 32
Wind_Direction
229 206 193 207 223 230 240 244 244 245 247 244 248 250 243 241 237 239 245 254 260 264 263 272 286 299 303 295 315 302 296 291 279 278 281 294 304 316 326 328 327 326 328
211 202 213 229 237 242 246 249 250 250 251 252 250 246 236 237 243 249 255 260 263 270 276 274 272 284 285 284 280 293 287 273 266 274 279 280 289 302 312 320 320 322 323
205 212 221 232 239 245 250 251 249 249 245 247 246 242 241 244 248 254 262 274 277 278 280 282 275 267 269 270 279 277 292 268 269 278 274 278 285 296 306 312 315 315 316
218 223 227 235 246 263 266 263 260 253 249 246 246 244 244 246 252 254 268 272 269 270 285 291 273 275 276 280 285 269 271 279 276 272 274 277 282 292 300 305 305 306 308
225 229 233 236 242 250 255 258 265 251 251 247 245 237 241 241 246 249 254 265 274 279 291 290 280 281 285 284 279 266 261 265 267 273 275 276 283 290 296 297 298 298 301
226 236 246 252 259 264 288 251 309 292 252 234 247 247 252 255 260 264 269 286 284 283 294 287 281 279 275 273 278 277 275 275 273 275 276 281 285 289 291 290 291 293 294
240 256 304 353 334 289 339 244 278 302 257 239 237 250 260 264 267 272 283 298 292 290 294 290 285 279 273 270 269 271 273 275 278 280 282 284 285 287 287 287 287 287 288
226 255 295 330 313 293 259 221 218 236 239 220 237 250 260 267 276 277 284 284 285 288 290 289 287 284 282 281 279 277 276 277 278 278 279 281 283 283 283 284 282 282 284
297 280 272 266 275 234 250 226 231 238 245 243 242 255 265 274 281 279 281 284 288 290 290 290 289 287 285 283 282 282 280 278 276 276 279 280 279 279 280 280 280 281 281
341 351 329 228 229 237 249 247 237 237 241 249 260 269 275 281 284 286 289 293 293 295 297 296 294 290 286 283 282 280 279 276 273 274 274 275 277 278 278 278 278 277 277
294 271 253 257 251 258 257 264 269 273 277 278 281 282 284 286 288 289 290 292 295 296 295 293 292 289 288 286 285 284 281 278 277 277 278 278 278 278 278 278 276 274 272
298 290 276 269 268 269 273 262 268 272 275 278 281 284 287 288 288 289 291 291 291 292 292 291 288 287 287 286 284 281 279 279 279 277 277 276 276 275 276 276 273 272 268
313 296 266 272 267 273 275 286 273 272 274 276 279 282 283 284 284 285 286 287 288 288 287 284 282 282 282 282 280 278 277 276 276 276 277 276 274 269 267 266 265 266 266
303 297 292 287 279 279 279 281 282 284 283 283 283 284 283 283 283 283 284 286 287 287 288 288 286 284 282 280 278 277 276 275 275 276 274 271 269 269 266 259 255 257 261
302 300 300 301 299 298 298 296 292 289 288 287 286 285 285 283 283 284 283 282 282 282 282 282 282 283 283 281 278 275 274 276 278 279 278 279 274 269 269 262 255 253 258
301 303 308 309 308 306 304 301 298 297 295 292 289 286 284 283 282 282 283 284 285 283 282 280 280 281 280 279 278 278 278 279 278 278 279 277 275 274 275 272 264 258 256
306 310 311 310 311 311 310 308 306 303 300 299 296 295 295 295 295 294 293 292 288 287 288 288 286 281 278 277 277 276 276 275 275 277 276 275 274 274 273 272 269 265 262
309 306 306 307 308 307 306 306 306 305 305 305 303 301 300 298 298 299 297 294 292 289 285 284 286 285 282 278 276 276 276 276 275 275 275 275 272 269 266 264 269 267 266
308 309 311 312 311 311 310 309 309 309 309 310 307 307 305 303 302 299 298 297 295 291 289 287 284 282 281 278 275 273 273 274 275 274 277 270 269 268 265 264 264 264 266
308 309 309 310 310 310 311 310 309 307 306 307 310 312 311 304 300 300 301 300 297 294 290 286 287 285 282 281 277 275 274 275 274 274 273 267 265 263 263 264 262 259 261
304 308 310 312 313 313 312 311 307 305 307 312 318 317 315 313 313 310 305 301 299 295 292 289 286 285 287 280 276 271 270 271 276 275 272 267 262 261 260 260 261 261 257
308 310 308 305 303 305 310 312 306 307 312 321 321 322 322 320 317 315 314 309 302 295 293 296 298 292 289 283 279 271 267 270 273 273 268 269 262 257 257 257 256 256 253
318 313 310 308 303 307 311 313 310 309 317 323 326 326 323 319 316 313 309 306 304 296 307 297 299 308 311 301 290 285 280 274 272 271 269 267 266 263 252 251 250 251 253
314 310 301 294 294 289 301 312 306 315 325 330 330 328 324 324 323 318 311 314 309 299 308 311 300 287 303 304 306 309 307 306 295 286 278 261 257 260 265 255 254 249 249
309 306 299 292 288 288 288 304 319 318 328 330 334 344 340 341 335 329 305 313 305 308 311 298 308 288 272 298 308 301 301 298 295 291 275 281 258 254 262 258 248 250 247
313 305 296 283 286 285 293 302 312 318 325 331 331 327 331 335 333 329 323 315 322 317 301 300 296 296 293 293 294 309 295 294 305 303 295 279 265 264 264 262 245 248 249